[[{"header":{"parameterUnit":"m.s-1","parameterCategory":2,"la1":30.2992,"la2":30.254,"lo1":-89.0895,"lo2":-89.0443,"dy":0.0025,"dx":0.0025,"nx":19,"ny":19,"refTime":"2026-04-05T03:00:00:Z","depth":"0","parameterNumber":2,"parameterNumberName":"U-component_of_CURRENTS"},"data":[0,0,0,-0.2055,-0.2056,-0.2061,-0.2061,-0.2045,-0.2045,0,0,0,0,0,0,0,0,0,0,0,-0.2048,-0.2048,-0.2055,-0.2056,-0.2061,-0.2061,-0.2045,-0.2045,0,0,0,0,0,0,0,0,0,0,0,-0.2047,-0.2048,-0.2048,-0.2056,-0.2061,-0.2061,-0.2045,-0.2045,0,0,0,0,0,0,0,0,0,0,-0.2042,-0.2035,-0.2048,-0.2048,-0.2056,-0.2061,-0.2061,-0.2045,-0.2045,-0.2039,0,-0.2041,0,-0.2048,-0.2044,-0.2044,0,0,0,-0.2048,-0.2035,-0.2045,-0.2048,-0.2056,-0.2061,-0.2056,-0.2045,-0.2045,-0.2038,-0.2041,-0.2041,-0.2048,-0.2044,-0.2044,-0.206,-0.2061,0,0,-0.2047,-0.2039,-0.2045,-0.2045,-0.2059,-0.2056,-0.2056,-0.2045,-0.204,-0.2041,-0.2041,-0.2048,-0.2044,-0.2044,-0.206,-0.206,0,0,0,-0.2052,-0.2039,-0.2049,-0.2045,-0.2051,-0.2056,-0.2057,-0.204,-0.2046,-0.2041,-0.2048,-0.2044,-0.2044,-0.206,-0.206,-0.2086,0,0,0,-0.2051,-0.2042,-0.2049,-0.2043,-0.2052,-0.2048,-0.2052,-0.2047,-0.2046,-0.2048,-0.2044,-0.2043,-0.2059,-0.206,-0.2085,-0.2085,0,0,0,-0.2047,-0.2042,-0.2045,-0.2042,-0.205,-0.2048,-0.2053,-0.2047,-0.2051,-0.2044,-0.2043,-0.2059,-0.206,-0.2084,-0.2084,-0.2075,0,0,0,-0.2034,-0.2041,-0.2045,-0.2058,-0.205,-0.2077,-0.2053,-0.2061,-0.2058,-0.2044,-0.2059,-0.206,-0.2083,-0.2083,-0.2075,-0.1975,-0.197,0,0,-0.2038,-0.2041,-0.2053,-0.2057,-0.2083,-0.2075,-0.2099,-0.208,-0.2065,-0.2059,-0.206,-0.2085,-0.2083,-0.2075,-0.2013,-0.2006,0,0,0,-0.2052,-0.2055,-0.2066,-0.208,-0.2102,-0.2112,-0.2106,-0.2104,-0.2097,-0.2068,-0.2091,-0.2089,-0.2083,-0.2022,-0.2017,-0.195,-0.2063,-0.2063,-0.2063,-0.2024,-0.205,-0.2065,-0.2095,-0.2115,-0.2136,-0.2142,-0.2136,-0.2124,-0.2128,-0.2115,-0.2133,-0.2069,-0.2064,-0.1997,-0.2127,-0.2127,-0.2127,-0.2127,-0.2015,-0.2011,-0.2056,-0.2077,-0.2109,-0.2128,-0.2163,-0.2161,-0.216,-0.2151,-0.2144,-0.2059,-0.206,-0.1991,-0.2129,-0.2128,-0.2128,-0.2128,-0.2128,-0.1972,-0.197,-0.1999,-0.2029,-0.2064,-0.211,-0.2128,-0.2161,-0.2168,-0.2171,-0.208,-0.2078,-0.2009,-0.216,-0.216,-0.216,-0.216,-0.216,-0.216,-0.1895,-0.1927,-0.1922,-0.1976,-0.1988,-0.2031,-0.2102,-0.2114,-0.2105,-0.209,-0.2089,-0.2,-0.2142,-0.2133,-0.2159,-0.2159,-0.2159,-0.216,-0.216,-0.1797,-0.1822,-0.1813,-0.1823,-0.1865,-0.1853,-0.197,-0.1977,-0.2007,-0.1976,-0.1904,-0.2041,-0.2015,-0.2017,-0.2004,-0.1996,-0.1996,-0.1996,-0.1996,-0.1707,-0.173,-0.1685,-0.1679,-0.1697,-0.1755,-0.17,-0.1737,-0.1762,-0.1736,-0.1802,-0.1769,-0.1779,-0.1739,-0.1747,-0.1729,-0.1651,-0.1651,-0.1651,-0.1613,-0.1631,-0.1555,-0.1582,-0.1601,-0.1611,-0.1516,-0.1508,-0.1573,-0.1635,-0.1731,-0.1746,-0.17,-0.1721,-0.166,-0.1677,-0.1648,0,0]},{"header":{"parameterUnit":"m.s-1","parameterCategory":2,"la1":30.2992,"la2":30.254,"lo1":-89.0895,"lo2":-89.0443,"dy":0.0025,"dx":0.0025,"nx":19,"ny":19,"refTime":"2026-04-05T03:00:00:Z","depth":"0","parameterNumber":3,"parameterNumberName":"V-component_of_CURRENTS"},"data":[0,0,0,-0.0527,-0.0526,-0.046,-0.046,-0.0364,-0.0364,0,0,0,0,0,0,0,0,0,0,0,-0.0552,-0.0552,-0.0527,-0.0526,-0.0461,-0.046,-0.0364,-0.0364,0,0,0,0,0,0,0,0,0,0,0,-0.0552,-0.0552,-0.0552,-0.0526,-0.0461,-0.046,-0.0365,-0.0414,0,0,0,0,0,0,0,0,0,0,-0.0478,-0.0512,-0.0552,-0.0552,-0.0525,-0.0461,-0.046,-0.0417,-0.0411,-0.0394,0,-0.0392,0,-0.0379,-0.0358,-0.0358,0,0,0,-0.0515,-0.0517,-0.0496,-0.0552,-0.0525,-0.0461,-0.0487,-0.0414,-0.0408,-0.0386,-0.0391,-0.0387,-0.0377,-0.0357,-0.0357,-0.0306,-0.0306,0,0,-0.0519,-0.0539,-0.05,-0.0492,-0.0519,-0.0489,-0.0485,-0.041,-0.041,-0.0391,-0.0385,-0.0376,-0.0357,-0.0356,-0.0306,-0.0306,0,0,0,-0.0536,-0.0542,-0.0523,-0.0496,-0.0487,-0.0488,-0.0483,-0.0413,-0.0406,-0.0384,-0.0374,-0.0356,-0.0355,-0.0306,-0.0306,-0.0368,0,0,0,-0.0538,-0.0553,-0.0525,-0.0536,-0.0489,-0.0452,-0.0488,-0.0411,-0.0402,-0.0375,-0.0356,-0.0354,-0.0306,-0.0306,-0.0366,-0.0396,0,0,0,-0.0553,-0.0554,-0.055,-0.0538,-0.0513,-0.0453,-0.0441,-0.0409,-0.0397,-0.0357,-0.0354,-0.0306,-0.0306,-0.0364,-0.0393,-0.0383,0,0,0,-0.0572,-0.0586,-0.055,-0.0562,-0.0514,-0.049,-0.0442,-0.0416,-0.0388,-0.0356,-0.0306,-0.0306,-0.0364,-0.0391,-0.0381,-0.0341,-0.0345,0,0,-0.0602,-0.059,-0.0597,-0.0564,-0.0566,-0.0498,-0.0486,-0.0428,-0.0383,-0.0327,-0.0326,-0.0367,-0.0392,-0.0383,-0.0352,-0.0356,0,0,0,-0.0615,-0.0624,-0.0617,-0.0609,-0.0573,-0.054,-0.0476,-0.044,-0.0389,-0.0368,-0.0353,-0.0367,-0.0359,-0.0331,-0.0334,-0.0193,-0.0307,-0.0307,-0.0307,-0.0681,-0.0663,-0.068,-0.0653,-0.0632,-0.0564,-0.0529,-0.0466,-0.042,-0.0406,-0.0408,-0.043,-0.0402,-0.0403,-0.0259,-0.0394,-0.0394,-0.0394,-0.0394,-0.0745,-0.0759,-0.073,-0.0741,-0.0692,-0.067,-0.0578,-0.0535,-0.0473,-0.0442,-0.0431,-0.0386,-0.0409,-0.0254,-0.0398,-0.0398,-0.0397,-0.0397,-0.0396,-0.0797,-0.0803,-0.0803,-0.0813,-0.0798,-0.0735,-0.0704,-0.0622,-0.0535,-0.0525,-0.0456,-0.0454,-0.0324,-0.0511,-0.0511,-0.0511,-0.0511,-0.0511,-0.0511,-0.0853,-0.0853,-0.0887,-0.0887,-0.0892,-0.0869,-0.0772,-0.0712,-0.0589,-0.0515,-0.0514,-0.0307,-0.0465,-0.0467,-0.0513,-0.0513,-0.0512,-0.0512,-0.0512,-0.0917,-0.0917,-0.0973,-0.0992,-0.1002,-0.0991,-0.0892,-0.0731,-0.0646,-0.0573,-0.0306,-0.0489,-0.0457,-0.0453,-0.0454,-0.0494,-0.0494,-0.0494,-0.0494,-0.096,-0.0965,-0.1041,-0.1081,-0.1103,-0.1047,-0.0948,-0.0746,-0.0435,-0.0267,-0.0219,-0.0171,-0.0178,-0.0126,-0.013,-0.0122,-0.0077,-0.0076,-0.0075,-0.0999,-0.1022,-0.1078,-0.1117,-0.1147,-0.1096,-0.0977,-0.0701,-0.0244,-0.0044,-0.0031,-0.0049,0.0036,0.0013,0.0105,0.0088,0.0105,0,0]}],[{"header":{"parameterUnit":"m.s-1","parameterCategory":2,"la1":30.2992,"la2":30.254,"lo1":-89.0895,"lo2":-89.0443,"dy":0.0025,"dx":0.0025,"nx":19,"ny":19,"refTime":"2026-04-05T03:00:00:Z","depth":"2","parameterNumber":2,"parameterNumberName":"U-component_of_CURRENTS"},"data":[0,0,0,-0.1952,-0.1953,-0.1969,-0.1969,-0.1962,-0.1962,0,0,0,0,0,0,0,0,0,0,0,-0.1942,-0.1942,-0.1952,-0.1953,-0.1969,-0.1969,-0.1962,-0.1962,0,0,0,0,0,0,0,0,0,0,0,-0.1941,-0.1942,-0.1942,-0.1953,-0.197,-0.1969,-0.1962,-0.1955,0,0,0,0,0,0,0,0,0,0,-0.1942,-0.1933,-0.1942,-0.1942,-0.1953,-0.197,-0.1969,-0.1955,-0.1955,-0.1948,0,-0.1953,0,-0.1962,-0.1961,-0.1961,0,0,0,-0.1946,-0.1933,-0.1945,-0.1942,-0.1954,-0.197,-0.196,-0.1955,-0.1956,-0.1949,-0.1953,-0.1953,-0.1962,-0.1961,-0.1961,-0.198,-0.1981,0,0,-0.1945,-0.1936,-0.1944,-0.1945,-0.1961,-0.196,-0.1961,-0.1956,-0.1952,-0.1953,-0.1953,-0.1962,-0.1961,-0.1961,-0.198,-0.198,0,0,0,-0.1947,-0.1935,-0.1948,-0.1945,-0.1953,-0.196,-0.1961,-0.1952,-0.1959,-0.1954,-0.1962,-0.1961,-0.1961,-0.198,-0.198,-0.2005,0,0,0,-0.1946,-0.1938,-0.1947,-0.1941,-0.1954,-0.1956,-0.1958,-0.1959,-0.1959,-0.1962,-0.1961,-0.1961,-0.1979,-0.198,-0.2004,-0.2004,0,0,0,-0.194,-0.1937,-0.1941,-0.1941,-0.1953,-0.1957,-0.1962,-0.1959,-0.1964,-0.1961,-0.1961,-0.1979,-0.198,-0.2003,-0.2003,-0.1995,0,0,0,-0.1927,-0.1934,-0.1941,-0.1956,-0.1953,-0.1982,-0.1962,-0.1975,-0.1975,-0.1961,-0.1979,-0.198,-0.2003,-0.2002,-0.1994,-0.1885,-0.188,0,0,-0.1931,-0.1934,-0.1947,-0.1953,-0.1981,-0.1979,-0.2004,-0.1993,-0.1981,-0.1977,-0.1978,-0.2005,-0.2003,-0.1995,-0.1922,-0.1915,0,0,0,-0.1945,-0.1948,-0.196,-0.1977,-0.2001,-0.2015,-0.2015,-0.2015,-0.2014,-0.1986,-0.201,-0.2008,-0.2002,-0.1936,-0.1931,-0.1983,-0.1983,-0.1983,-0.1983,-0.1918,-0.1944,-0.196,-0.1991,-0.2013,-0.2039,-0.2048,-0.2047,-0.2038,-0.2044,-0.2034,-0.2051,-0.1981,-0.1976,-0.2045,-0.2045,-0.2045,-0.2045,-0.2045,-0.191,-0.1908,-0.1952,-0.1975,-0.2009,-0.2032,-0.2069,-0.2071,-0.2074,-0.2068,-0.2061,-0.1972,-0.1971,-0.2047,-0.2047,-0.2047,-0.2046,-0.2046,-0.2046,-0.1869,-0.1869,-0.1898,-0.1931,-0.1969,-0.2017,-0.2035,-0.2072,-0.2082,-0.2086,-0.1991,-0.1989,-0.2049,-0.2077,-0.2077,-0.2077,-0.2077,-0.2077,-0.2077,-0.1797,-0.1829,-0.1827,-0.1882,-0.1895,-0.194,-0.2013,-0.2024,-0.2015,-0.2,-0.1999,-0.2061,-0.206,-0.2051,-0.2077,-0.2077,-0.2077,-0.2077,-0.2077,-0.1704,-0.173,-0.1724,-0.1735,-0.1777,-0.1761,-0.1878,-0.1881,-0.1912,-0.1878,-0.1943,-0.1947,-0.1921,-0.1923,-0.191,-0.1898,-0.1898,-0.1898,-0.1898,-0.1619,-0.1642,-0.1602,-0.1597,-0.1612,-0.1663,-0.1587,-0.1581,-0.1655,-0.165,-0.1661,-0.1625,-0.1638,-0.1595,-0.1605,-0.1585,-0.1488,-0.1487,-0.1487,-0.153,-0.1548,-0.1478,-0.1505,-0.1519,-0.1517,-0.1383,-0.125,-0.1291,-0.147,-0.1579,-0.1873,-0.185,-0.1859,-0.1815,-0.1823,-0.18,0,0]},{"header":{"parameterUnit":"m.s-1","parameterCategory":2,"la1":30.2992,"la2":30.254,"lo1":-89.0895,"lo2":-89.0443,"dy":0.0025,"dx":0.0025,"nx":19,"ny":19,"refTime":"2026-04-05T03:00:00:Z","depth":"2","parameterNumber":3,"parameterNumberName":"V-component_of_CURRENTS"},"data":[0,0,0,-0.0398,-0.0397,-0.0339,-0.0339,-0.0245,-0.0244,0,0,0,0,0,0,0,0,0,0,0,-0.042,-0.042,-0.0398,-0.0397,-0.0339,-0.0339,-0.0245,-0.0244,0,0,0,0,0,0,0,0,0,0,0,-0.042,-0.042,-0.042,-0.0397,-0.0339,-0.0339,-0.0245,-0.0291,0,0,0,0,0,0,0,0,0,0,-0.0349,-0.0381,-0.042,-0.042,-0.0396,-0.0339,-0.0339,-0.0294,-0.0288,-0.0269,0,-0.027,0,-0.0258,-0.0239,-0.0238,0,0,0,-0.0386,-0.0386,-0.0367,-0.042,-0.0396,-0.0339,-0.0362,-0.0291,-0.0285,-0.0262,-0.0268,-0.0265,-0.0256,-0.0238,-0.0238,-0.0185,-0.0185,0,0,-0.0389,-0.0409,-0.0371,-0.0364,-0.0392,-0.0364,-0.036,-0.0287,-0.0288,-0.0268,-0.0262,-0.0255,-0.0238,-0.0237,-0.0185,-0.0185,0,0,0,-0.0406,-0.0411,-0.0394,-0.0367,-0.036,-0.0363,-0.0358,-0.0291,-0.0285,-0.0261,-0.0254,-0.0237,-0.0236,-0.0185,-0.0185,-0.0248,0,0,0,-0.0407,-0.0421,-0.0396,-0.0407,-0.0362,-0.0329,-0.0364,-0.029,-0.0281,-0.0254,-0.0237,-0.0235,-0.0185,-0.0185,-0.0246,-0.0275,0,0,0,-0.0421,-0.0423,-0.0419,-0.0408,-0.0387,-0.033,-0.0319,-0.0288,-0.0277,-0.0238,-0.0235,-0.0185,-0.0185,-0.0244,-0.0272,-0.0263,0,0,0,-0.0438,-0.0452,-0.042,-0.0432,-0.0388,-0.0365,-0.0319,-0.0296,-0.0269,-0.0237,-0.0185,-0.0185,-0.0244,-0.027,-0.0262,-0.0217,-0.022,0,0,-0.0468,-0.0456,-0.0464,-0.0433,-0.0435,-0.0371,-0.036,-0.0306,-0.0262,-0.0205,-0.0204,-0.0247,-0.0272,-0.0263,-0.0226,-0.0229,0,0,0,-0.048,-0.0489,-0.0483,-0.0476,-0.0441,-0.0411,-0.035,-0.0316,-0.0268,-0.0247,-0.0232,-0.0246,-0.0238,-0.0208,-0.021,-0.0186,-0.0186,-0.0186,-0.0186,-0.0546,-0.0527,-0.0544,-0.0517,-0.0497,-0.0433,-0.04,-0.0339,-0.0295,-0.0283,-0.0286,-0.0308,-0.0277,-0.0278,-0.0272,-0.0272,-0.0272,-0.0272,-0.0272,-0.0607,-0.0621,-0.0593,-0.0604,-0.0557,-0.0536,-0.0447,-0.0407,-0.0348,-0.0319,-0.0308,-0.0262,-0.0284,-0.0277,-0.0276,-0.0275,-0.0275,-0.0275,-0.0274,-0.0659,-0.0665,-0.0666,-0.0676,-0.0663,-0.0603,-0.0572,-0.0494,-0.0411,-0.0402,-0.0331,-0.0329,-0.0341,-0.0389,-0.0389,-0.039,-0.039,-0.039,-0.039,-0.0715,-0.0715,-0.0749,-0.075,-0.0757,-0.0736,-0.0642,-0.0583,-0.0463,-0.039,-0.0389,-0.0347,-0.0343,-0.0346,-0.0391,-0.0391,-0.0391,-0.0391,-0.0391,-0.0777,-0.0779,-0.0835,-0.0854,-0.0864,-0.0847,-0.0755,-0.0596,-0.0514,-0.0442,-0.0362,-0.0362,-0.033,-0.0326,-0.0328,-0.0366,-0.0366,-0.0366,-0.0366,-0.0821,-0.0826,-0.0901,-0.094,-0.0959,-0.0898,-0.0786,-0.0573,-0.0396,-0.0297,-0.03,-0.0272,-0.0274,-0.0236,-0.0235,-0.0233,-0.0247,-0.0247,-0.0247,-0.0859,-0.0881,-0.0937,-0.0974,-0.0999,-0.0938,-0.0794,-0.0483,-0.0225,-0.0242,-0.0285,-0.0357,-0.0322,-0.0323,-0.0268,-0.0265,-0.0263,0,0]}],[{"header":{"parameterUnit":"m.s-1","parameterCategory":2,"la1":30.2992,"la2":30.254,"lo1":-89.0895,"lo2":-89.0443,"dy":0.0025,"dx":0.0025,"nx":19,"ny":19,"refTime":"2026-04-05T03:00:00:Z","depth":"4","parameterNumber":2,"parameterNumberName":"U-component_of_CURRENTS"},"data":[0,0,0,-0.1334,-0.1336,-0.146,-0.146,-0.1542,-0.1542,0,0,0,0,0,0,0,0,0,0,0,-0.1293,-0.1294,-0.1333,-0.1337,-0.146,-0.146,-0.1541,-0.1542,0,0,0,0,0,0,0,0,0,0,0,-0.1293,-0.1294,-0.1295,-0.1337,-0.146,-0.146,-0.1541,-0.1467,0,0,0,0,0,0,0,0,0,0,-0.1357,-0.1332,-0.1294,-0.1295,-0.1338,-0.146,-0.146,-0.1465,-0.1472,-0.1464,0,-0.149,0,-0.1516,-0.1546,-0.1546,0,0,0,-0.1337,-0.1326,-0.1358,-0.1295,-0.1339,-0.1459,-0.1404,-0.1469,-0.1477,-0.1473,-0.1491,-0.1495,-0.1517,-0.1546,-0.1546,-0.1612,-0.1613,0,0,-0.133,-0.1314,-0.1352,-0.1363,-0.1379,-0.14,-0.1408,-0.1475,-0.1486,-0.1492,-0.1497,-0.1518,-0.1546,-0.1547,-0.1612,-0.1612,0,0,0,-0.131,-0.131,-0.1342,-0.1359,-0.1387,-0.1404,-0.1413,-0.1483,-0.1494,-0.1498,-0.1519,-0.1547,-0.1547,-0.1612,-0.1612,-0.1634,0,0,0,-0.1306,-0.1298,-0.1339,-0.133,-0.1386,-0.1447,-0.1419,-0.1489,-0.1498,-0.1519,-0.1547,-0.1548,-0.1611,-0.1612,-0.1632,-0.163,0,0,0,-0.1286,-0.1296,-0.1313,-0.1329,-0.1382,-0.1447,-0.1463,-0.1492,-0.151,-0.1546,-0.1548,-0.1611,-0.1612,-0.1631,-0.1629,-0.1621,0,0,0,-0.1261,-0.1287,-0.1313,-0.1353,-0.1381,-0.1454,-0.1463,-0.1523,-0.1557,-0.1547,-0.1611,-0.1612,-0.1631,-0.1628,-0.162,-0.1417,0,0,0,-0.1274,-0.1288,-0.1312,-0.1338,-0.14,-0.1436,-0.1501,-0.155,-0.1562,-0.1583,-0.1585,-0.1633,-0.1629,-0.1621,-0.1463,0,0,0,0,-0.1304,-0.132,-0.1344,-0.1391,-0.1446,-0.15,-0.1552,-0.1573,-0.1618,-0.1586,-0.1642,-0.1639,-0.1633,-0.1513,-0.1616,-0.1616,-0.1616,-0.1615,-0.1615,-0.1284,-0.1324,-0.1365,-0.1422,-0.1472,-0.1548,-0.1587,-0.1622,-0.1637,-0.1661,-0.1664,-0.1681,-0.1558,-0.1678,-0.1678,-0.1678,-0.1678,-0.1678,-0.1678,-0.1288,-0.1302,-0.1372,-0.1429,-0.1495,-0.1557,-0.1625,-0.165,-0.1685,-0.1693,-0.1686,-0.1554,-0.1681,-0.168,-0.168,-0.168,-0.1679,-0.1679,-0.1679,-0.125,-0.1259,-0.1321,-0.14,-0.148,-0.1563,-0.1597,-0.1663,-0.1694,-0.1703,-0.1563,-0.1687,-0.1675,-0.1703,-0.1703,-0.1703,-0.1703,-0.1703,-0.1703,-0.117,-0.123,-0.1267,-0.1367,-0.1413,-0.1486,-0.1587,-0.1596,-0.1651,-0.1556,-0.1707,-0.1689,-0.1688,-0.1677,-0.1702,-0.1702,-0.1702,-0.1702,-0.1702,-0.1089,-0.1133,-0.117,-0.1219,-0.131,-0.1346,-0.1478,-0.1458,-0.1447,-0.1394,-0.1467,-0.1479,-0.1445,-0.145,-0.1429,-0.1382,-0.1379,-0.1377,0,-0.1013,-0.1044,-0.107,-0.1105,-0.1128,-0.1245,-0.1187,-0.1231,-0.1275,-0.1233,-0.1441,-0.1525,-0.1532,-0.1496,-0.1496,-0.1471,0,0,0,-0.0944,-0.0972,-0.0952,-0.1016,-0.1033,-0.1061,-0.116,-0.1118,-0.1284,-0.1213,-0.1312,-0.1329,-0.156,-0.1701,-0.1676,-0.1676,-0.1655,0,0]},{"header":{"parameterUnit":"m.s-1","parameterCategory":2,"la1":30.2992,"la2":30.254,"lo1":-89.0895,"lo2":-89.0443,"dy":0.0025,"dx":0.0025,"nx":19,"ny":19,"refTime":"2026-04-05T03:00:00:Z","depth":"4","parameterNumber":3,"parameterNumberName":"V-component_of_CURRENTS"},"data":[0,0,0,-0.0178,-0.0178,-0.0154,-0.0154,-0.0091,-0.009,0,0,0,0,0,0,0,0,0,0,0,-0.0187,-0.0187,-0.0178,-0.0178,-0.0154,-0.0154,-0.0091,-0.009,0,0,0,0,0,0,0,0,0,0,0,-0.0187,-0.0187,-0.0188,-0.0178,-0.0154,-0.0154,-0.0091,-0.0115,0,0,0,0,0,0,0,0,0,0,-0.0141,-0.0161,-0.0187,-0.0188,-0.0178,-0.0154,-0.0154,-0.0116,-0.0113,-0.0095,0,-0.01,0,-0.0096,-0.0086,-0.0086,0,0,0,-0.0169,-0.0163,-0.0156,-0.0188,-0.0178,-0.0154,-0.0162,-0.0115,-0.0112,-0.0091,-0.0099,-0.0097,-0.0095,-0.0086,-0.0086,-0.0049,-0.0049,0,0,-0.017,-0.0181,-0.0158,-0.0154,-0.0181,-0.0163,-0.0161,-0.0113,-0.0114,-0.0099,-0.0095,-0.0094,-0.0086,-0.0085,-0.0049,-0.0049,0,0,0,-0.018,-0.0182,-0.0175,-0.0156,-0.0156,-0.0162,-0.0161,-0.0116,-0.0114,-0.0095,-0.0094,-0.0085,-0.0084,-0.0049,-0.0049,-0.0103,0,0,0,-0.018,-0.0188,-0.0176,-0.0182,-0.0158,-0.0141,-0.0165,-0.0117,-0.0112,-0.0094,-0.0085,-0.0084,-0.0049,-0.0049,-0.0101,-0.0126,0,0,0,-0.0187,-0.0189,-0.0189,-0.0183,-0.0176,-0.0142,-0.0137,-0.0116,-0.0111,-0.0086,-0.0084,-0.0049,-0.0049,-0.01,-0.0123,-0.0117,0,0,0,-0.0194,-0.0209,-0.0189,-0.0205,-0.0177,-0.0171,-0.0137,-0.0127,-0.0111,-0.0085,-0.0049,-0.0049,-0.0099,-0.0122,-0.0116,-0.0099,0,0,0,-0.0218,-0.0212,-0.0222,-0.0204,-0.0216,-0.0173,-0.0173,-0.0137,-0.0103,-0.006,-0.0059,-0.0102,-0.0123,-0.0117,-0.0107,0,0,0,0,-0.0233,-0.0242,-0.0242,-0.0244,-0.0227,-0.0212,-0.0172,-0.0147,-0.0114,-0.0095,-0.0089,-0.01,-0.0095,-0.0081,-0.0049,-0.0049,-0.0049,-0.0049,-0.0049,-0.0277,-0.0271,-0.0291,-0.0282,-0.0274,-0.0236,-0.0216,-0.0171,-0.0137,-0.0129,-0.0135,-0.0156,-0.0143,-0.0123,-0.0123,-0.0123,-0.0123,-0.0124,-0.0124,-0.0325,-0.0339,-0.0331,-0.0352,-0.0328,-0.0322,-0.0259,-0.023,-0.0187,-0.0163,-0.0155,-0.0128,-0.0129,-0.0128,-0.0127,-0.0126,-0.0126,-0.0126,-0.0125,-0.0357,-0.0363,-0.038,-0.0407,-0.0414,-0.038,-0.0362,-0.0307,-0.0241,-0.0236,-0.0193,-0.018,-0.0185,-0.0227,-0.0227,-0.0227,-0.0227,-0.0227,-0.0227,-0.0382,-0.0397,-0.0437,-0.0462,-0.0483,-0.0481,-0.0422,-0.0375,-0.0303,-0.0247,-0.0248,-0.019,-0.0186,-0.0189,-0.0228,-0.0228,-0.0228,-0.0228,-0.0228,-0.041,-0.0426,-0.0485,-0.0518,-0.0555,-0.0546,-0.05,-0.0383,-0.0333,-0.0269,-0.0236,-0.0235,-0.0208,-0.0204,-0.0206,-0.0252,-0.0252,-0.0252,0,-0.0428,-0.044,-0.0517,-0.0567,-0.0592,-0.0573,-0.0497,-0.0425,-0.0325,-0.0323,-0.0342,-0.0312,-0.0308,-0.0283,-0.0279,-0.0286,0,0,0,-0.0443,-0.0469,-0.0518,-0.0572,-0.0602,-0.0517,-0.047,-0.0424,-0.0346,-0.027,-0.025,-0.0251,-0.0259,-0.0233,-0.0188,-0.0184,-0.0185,0,0]}]]